Tracking 29892 objects as of 21-Nov-2024
HD Live streaming from Space Station
objects crossing your sky now

NOAA 16 DEB

Track NOAA 16 DEB now!
10-day predictions


NORAD ID: 41297
Int'l Code: 2000-055GZ
Perigee: 818.5 km
Apogee: 915.9 km
Inclination: 99.0 °
Period: 102.1 minutes
Semi major axis: 7238 km
RCS: Unknown
Launch date: September 21, 2000
Source: United States (US)
Launch site: AIR FORCE WESTERN TEST RANGE (AFWTR)

Note: This is SATELLITE DEBRIS
Your satellite tracking list
Your tracking list is empty




NASA's NSSDC Master Catalog

Two Line Element Set (TLE):
1 41297U 00055GZ  24325.40512026  .00006704  00000-0  37575-2 0  9995
2 41297  98.9677  18.0478 0067290 234.2521 125.2379 14.09799978454973
Source of the keplerian elements: AFSPC